Location: Twillingate Astronomical Observatory
(49.6173°N, 54.7580°W)
Time: 12:15:31
(UTC-02:-30)

Amateur Radio Satellites - All Passes

Search period start: 26 September 2017 11:45
Search period end: 27 September 2017 11:45
Location: Twillingate Astronomical Observatory, 49.6173°N, 54.7580°W

Satellite Date Start Highest point End Downlink Frequencies (MHz)
Time Altitude Azimuth
EO-79 26 Sep 11:46:52 11:50:59 57° 71° (ENE) 11:55:10 145.935-145.965
BUGSAT 1 26 Sep 11:50:28 11:53:01 16° 59° (ENE) 11:55:36 437.445
O/OREOS (USA 219) 26 Sep 11:50:43 11:55:21 86° 63° (ENE) 11:59:58 437.305
HO-68 26 Sep 11:56:10 11:57:50 11° 325° (NW) 11:59:29 435.675
QB50P2 26 Sep 12:01:29 12:05:42 87° 76° (ENE) 12:10:00 145.880/145.840
AIST 2D 26 Sep 12:05:43 12:08:58 34° 263° (W) 12:12:15 435.315
Oscar 19 26 Sep 12:16:23 12:20:11 21° 57° (ENE) 12:23:58 437.125/150
YUBILEINY 26 Sep 12:21:00 12:29:26 59° 91° (E) 12:37:56 435.215
Gurwin Techsat 1B 26 Sep 12:25:32 12:29:05 19° 55° (NE) 12:32:39 435.225
NO-84 26 Sep 12:32:01 12:35:13 25° 137° (SE) 12:38:15 435.350 FM
EO-88 26 Sep 12:32:29 12:34:53 17° 298° (WNW) 12:37:16 145.990 - 145.960
NANOSAT C BR1 26 Sep 12:33:59 12:38:06 54° 260° (W) 12:42:16 145.865
SPROUT 26 Sep 12:51:48 12:55:18 24° 93° (E) 12:58:45 437.525
M-CUBED/EXP-1 PRIME 26 Sep 12:52:29 12:56:36 62° 252° (WSW) 13:00:24 437.505
ESTCUBE 1 26 Sep 12:59:35 13:04:08 86° 283° (WNW) 13:08:36 437.505/2401.250
DUCHIFAT 1 26 Sep 13:01:11 13:04:58 33° 264° (W) 13:08:48 145.980
VELOX 1 26 Sep 13:15:28 13:19:19 29° 95° (E) 13:23:10 145.980
RS-15 26 Sep 13:16:05 13:28:17 70° 43° (NE) 13:39:48 29.354- 29.394
LO-87 26 Sep 13:18:14 13:21:25 29° 292° (WNW) 13:24:35 145.935 - 145.965
POLYITAN 1 26 Sep 13:20:44 13:23:41 18° 269° (W) 13:26:39 437.675
AO-7 26 Sep 13:23:33 13:29:51 25° 44° (NE) 13:36:08 .
BUGSAT 1 26 Sep 13:23:55 13:27:55 62° 258° (WSW) 13:32:01 437.445
EO-79 26 Sep 13:24:21 13:27:08 17° 270° (W) 13:29:55 145.935-145.965
O/OREOS (USA 219) 26 Sep 13:31:57 13:34:04 13° 262° (W) 13:36:11 437.305
QB50P2 26 Sep 13:40:51 13:42:08 11° 274° (W) 13:43:24 145.880/145.840
Oscar 19 26 Sep 13:53:47 13:58:59 73° 256° (WSW) 14:04:12 437.125/150
SO-50 26 Sep 13:58:39 14:02:54 43° 122° (ESE) 14:07:11 436.795
UKube-1 26 Sep 14:01:50 14:04:37 17° 91° (E) 14:07:23 .
Gurwin Techsat 1B 26 Sep 14:03:03 14:08:23 86° 255° (WSW) 14:13:44 435.225
50 SAT 26 Sep 14:04:58 14:07:54 29° 97° (E) 14:10:49 437.505
NO-84 26 Sep 14:08:39 14:12:26 73° 335° (NNW) 14:15:52 435.350 FM
DX 1 26 Sep 14:14:26 14:18:21 32° 97° (E) 14:22:13 434.975-435.025
YUBILEINY 26 Sep 14:18:44 14:26:42 39° 294° (WNW) 14:34:43 435.215
PCSat 26 Sep 14:25:16 14:30:17 40° 115° (ESE) 14:35:20 145.827
SPROUT 26 Sep 14:27:18 14:31:20 41° 291° (WNW) 14:35:23 437.525
ESTCUBE 1 26 Sep 14:38:04 14:40:14 13° 304° (NW) 14:42:23 437.505/2401.250
VELOX 1 26 Sep 14:51:49 14:55:49 35° 294° (WNW) 14:59:47 145.980
ITAMSAT 1 26 Sep 15:05:40 15:10:32 44° 66° (ENE) 15:15:26 435.822/435.867
AO-7 26 Sep 15:13:10 15:21:29 78° 66° (ENE) 15:29:48 .
RS-15 26 Sep 15:29:11 15:40:16 47° 249° (WSW) 15:50:50 29.354- 29.394
ITUPSAT 1 26 Sep 15:29:16 15:32:38 19° 90° (E) 15:35:58 437.325
UKube-1 26 Sep 15:36:46 15:41:01 60° 289° (WNW) 15:45:16 .
50 SAT 26 Sep 15:37:42 15:40:14 21° 295° (WNW) 15:42:47 437.505
Oscar 19 26 Sep 15:37:45 15:39:14 11° 276° (W) 15:40:43 437.125/150
SO-50 26 Sep 15:39:19 15:43:28 35° 322° (NW) 15:47:39 436.795
Gurwin Techsat 1B 26 Sep 15:46:27 15:49:08 14° 274° (W) 15:51:50 435.225
NO-84 26 Sep 15:46:55 15:50:10 32° 354° (N) 15:53:11 435.350 FM
DX 1 26 Sep 15:50:39 15:54:29 31° 295° (WNW) 15:58:20 434.975-435.025
BEESAT 26 Sep 16:03:03 16:07:31 37° 97° (E) 16:11:55 436.000
MOZHAYETS 4 26 Sep 16:06:42 16:11:07 41° 98° (E) 16:15:28
PCSat 26 Sep 16:08:29 16:13:41 44° 316° (NW) 16:18:53 145.827
YUBILEINY 26 Sep 16:25:37 16:26:49 10° 323° (NW) 16:28:02 435.215
CUBESAT XI-V 26 Sep 16:41:54 16:45:33 23° 92° (E) 16:49:11 437.345
ITAMSAT 1 26 Sep 16:45:37 16:50:09 30° 265° (W) 16:54:43 435.822/435.867
LilacSat-2 26 Sep 16:47:55 16:49:15 12° 58° (ENE) 16:50:36 437.200
ITUPSAT 1 26 Sep 17:06:06 17:10:54 65° 289° (WNW) 17:15:39 437.325
HO-68 26 Sep 17:06:20 17:10:51 18° 45° (NE) 17:15:22 435.675
AO-7 26 Sep 17:08:08 17:15:03 29° 267° (W) 17:22:01 .
DOVE 4 26 Sep 17:16:15 17:20:31 67° 74° (ENE) 17:24:41 437.250
CUTE-I 26 Sep 17:17:13 17:21:34 27° 60° (ENE) 17:25:57 437.470
SO-50 26 Sep 17:22:43 17:25:13 14° 346° (NNW) 17:27:42 436.795
NO-84 26 Sep 17:24:53 17:28:05 40° 15° (NNE) 17:31:02 435.350 FM
XW-2D 26 Sep 17:29:27 17:32:43 27° 66° (ENE) 17:36:01 145.860 - 145.880
XW-2F 26 Sep 17:39:05 17:42:28 31° 68° (ENE) 17:45:53 145.980 - 146.000
KKS-1 26 Sep 17:40:23 17:44:15 28° 95° (E) 17:48:06 437.445
BEESAT 26 Sep 17:40:57 17:45:14 33° 296° (WNW) 17:49:30 436.000
XW-2B 26 Sep 17:41:39 17:45:08 34° 69° (ENE) 17:48:39 145.730 - 145.750
MOZHAYETS 4 26 Sep 17:44:09 17:48:06 28° 296° (WNW) 17:52:02
NUDT-PHONESAT 26 Sep 17:51:29 17:54:50 32° 68° (ENE) 17:58:13 437.300
PCSat 26 Sep 17:55:08 17:58:31 16° 339° (NNW) 18:01:52 145.827
STARS 26 Sep 17:56:00 17:59:04 18° 91° (E) 18:02:08 437.465
XW-2C 26 Sep 18:02:50 18:06:38 58° 72° (ENE) 18:10:26 145.795 - 145.815
CUTE 1.7 + AOD 2 26 Sep 18:15:01 18:18:14 21° 62° (ENE) 18:21:26 437.475
CUBESAT XI-V 26 Sep 18:18:43 18:23:11 49° 290° (WNW) 18:27:37 437.345
LilacSat-2 26 Sep 18:19:02 18:22:55 87° 256° (WSW) 18:26:50 437.200
KAITUO 1B 26 Sep 18:24:48 18:28:35 78° 75° (ENE) 18:32:24 145.475/437.950
BEESAT 3 26 Sep 18:39:57 18:42:16 15° 112° (ESE) 18:44:37 437.485
Tancredo 1 26 Sep 18:42:12 18:43:53 15° 142° (SE) 18:45:34 437.200
ITUPSAT 1 26 Sep 18:46:10 18:47:49 12° 308° (NW) 18:49:27 437.325
XW-2A 26 Sep 18:48:56 18:51:08 16° 63° (ENE) 18:53:20 145.665 - 145.685
HO-68 26 Sep 18:50:16 18:57:19 65° 66° (ENE) 19:04:25 435.675
CUTE-I 26 Sep 18:56:07 19:01:19 56° 259° (W) 19:06:33 437.470
DOVE 4 26 Sep 18:56:22 18:58:41 14° 271° (W) 19:00:57 437.250
NO-84 26 Sep 19:02:25 19:05:30 48° 217° (SW) 19:08:22 435.350 FM
XW-2D 26 Sep 19:03:25 19:06:50 30° 264° (W) 19:10:16 145.860 - 145.880
SO-50 26 Sep 19:05:17 19:07:32 13° 11° (N) 19:09:48 436.795
XW-2F 26 Sep 19:13:22 19:16:36 26° 266° (W) 19:19:52 145.980 - 146.000
SEEDS 26 Sep 19:15:01 19:19:07 48° 71° (ENE) 19:23:12 437.485
XW-2B 26 Sep 19:16:16 19:19:23 23° 266° (W) 19:22:31 145.730 - 145.750
KKS-1 26 Sep 19:16:47 19:20:53 37° 293° (WNW) 19:24:58 437.445
CUBEBUG 2 26 Sep 19:17:10 19:21:20 47° 70° (ENE) 19:25:38 437.445
UWE-3 26 Sep 19:17:27 19:21:17 30° 65° (ENE) 19:25:14 435.000/436.395/437.385
NUDT-PHONESAT 26 Sep 19:25:41 19:28:45 24° 266° (W) 19:31:52 437.300
AO-85 26 Sep 19:26:24 19:28:22 14° 111° (ESE) 19:30:21 145.980
AAUSAT CUBESAT 2 26 Sep 19:28:00 19:31:42 32° 67° (ENE) 19:35:24 437.432
STRAND 1 26 Sep 19:30:43 19:34:08 18° 89° (E) 19:37:31 437.568
STARS 26 Sep 19:31:26 19:35:46 57° 289° (WNW) 19:40:05 437.465
nSIGHT-1 26 Sep 19:34:23 19:35:28 11° 136° (SE) 19:36:34 .
XW-2C 26 Sep 19:39:05 19:41:11 14° 271° (W) 19:43:17 145.795 - 145.815
PCSat 26 Sep 19:41:57 19:44:16 13° 6° (N) 19:46:36 145.827
Oscar 11 26 Sep 19:48:10 19:51:38 23° 63° (ENE) 19:55:07 .
CUTE 1.7 + AOD 2 26 Sep 19:49:35 19:53:45 50° 261° (W) 19:57:56 437.475
AO-73 26 Sep 19:52:23 19:56:22 34° 66° (ENE) 20:00:26 145.935
ZACube-1 26 Sep 19:57:07 20:01:15 41° 68° (ENE) 20:05:30 437.345
KAITUO 1B 26 Sep 20:02:19 20:03:05 10° 273° (W) 20:03:53 145.475/437.950
Tancredo 1 26 Sep 20:15:16 20:17:56 78° 160° (SSE) 20:20:36 437.200
BEESAT 3 26 Sep 20:15:16 20:19:18 76° 311° (NW) 20:23:23 437.485
XW-2A 26 Sep 20:20:16 20:23:32 42° 261° (W) 20:26:52 145.665 - 145.685
DELFI C3 26 Sep 20:27:15 20:29:18 14° 60° (ENE) 20:31:22 145.870
BEESAT 2 26 Sep 20:30:37 20:34:33 56° 124° (SE) 20:38:33 435.950
YUBILEINY 26 Sep 20:32:47 20:33:18 10° 37° (NE) 20:33:48 435.215
ISS 26 Sep 20:35:36 20:38:30 30° 146° (SSE) 20:41:26 437.550
HO-68 26 Sep 20:39:24 20:45:33 30° 267° (W) 20:51:45 435.675
SO-50 26 Sep 20:45:24 20:49:25 29° 34° (NE) 20:53:28 436.795
Max Valier Satellite 26 Sep 20:47:54 20:50:11 16° 61° (ENE) 20:52:29 145.860
SEEDS 26 Sep 20:51:56 20:55:03 20° 269° (W) 20:58:11 437.485
UWE-3 26 Sep 20:53:40 20:57:40 34° 265° (W) 21:01:49 435.000/436.395/437.385
CUBEBUG 2 26 Sep 20:54:52 20:58:13 22° 269° (W) 21:01:40 437.445
AAUSAT CUBESAT 2 26 Sep 21:03:31 21:07:09 29° 265° (W) 21:10:48 437.432
AO-85 26 Sep 21:04:16 21:08:10 76° 312° (NW) 21:12:11 145.980
nSIGHT-1 26 Sep 21:08:03 21:11:12 53° 154° (SSE) 21:14:23 .
STRAND 1 26 Sep 21:08:43 21:13:53 75° 288° (WNW) 21:19:02 437.568
Oscar 11 26 Sep 21:23:21 21:27:32 45° 262° (W) 21:31:45 .
PCSat 26 Sep 21:25:23 21:29:44 24° 32° (NNE) 21:34:04 145.827
AO-73 26 Sep 21:28:41 21:32:36 31° 266° (W) 21:36:36 145.935
ZACube-1 26 Sep 21:34:02 21:37:41 25° 268° (W) 21:41:25 437.345
EO-88 26 Sep 21:39:26 21:42:52 39° 70° (ENE) 21:46:20 145.990 - 145.960
UNISAT 6 26 Sep 21:42:52 21:44:44 12° 86° (E) 21:46:38 437.425
FO-29 26 Sep 21:43:03 21:48:09 36° 97° (E) 21:53:44 435.910
Tancredo 1 26 Sep 21:49:49 21:52:26 51° 359° (N) 21:55:04 437.200
BEESAT 3 26 Sep 21:54:42 21:57:31 18° 332° (NNW) 22:00:22 437.485
DELFI C3 26 Sep 21:59:38 22:03:33 71° 257° (WSW) 22:07:31 145.870
TIGRISAT 26 Sep 22:04:29 22:07:43 18° 89° (E) 22:10:57 435.000
BEESAT 2 26 Sep 22:09:07 22:12:34 26° 325° (NW) 22:16:04 435.950
ISS 26 Sep 22:11:30 22:14:48 78° 346° (NNW) 22:18:05 437.550
Max Valier Satellite 26 Sep 22:19:58 22:23:38 54° 260° (W) 22:27:20 145.860
LO-87 26 Sep 22:25:21 22:27:58 20° 64° (ENE) 22:30:36 145.935 - 145.965
YUBILEINY 26 Sep 22:25:28 22:33:29 38° 65° (ENE) 22:41:28 435.215
SO-50 26 Sep 22:25:41 22:30:12 61° 235° (SW) 22:34:46 436.795
ESTCUBE 1 26 Sep 22:27:43 22:31:04 21° 61° (ENE) 22:34:26 437.505/2401.250
nSIGHT-1 26 Sep 22:44:19 22:47:32 61° 353° (N) 22:50:46 .
AO-85 26 Sep 22:46:32 22:49:15 17° 334° (NNW) 22:52:03 145.980
STRAND 1 26 Sep 22:49:34 22:52:14 14° 307° (NW) 22:54:54 437.568
PCSat 26 Sep 23:08:27 23:13:56 84° 54° (NE) 23:19:22 145.827
PRISM 26 Sep 23:11:06 23:14:55 38° 98° (E) 23:18:44 437.425
EO-88 26 Sep 23:14:03 23:16:41 19° 268° (W) 23:19:21 145.990 - 145.960
UNISAT 6 26 Sep 23:17:25 23:22:08 87° 106° (ESE) 23:26:51 437.425
Tancredo 1 26 Sep 23:24:17 23:26:58 87° 188° (S) 23:29:38 437.200
AIST 2D 26 Sep 23:27:13 23:29:01 13° 89° (E) 23:30:48 435.315
FO-29 26 Sep 23:28:14 23:33:20 41° 294° (WNW) 23:38:56 435.910
TIGRISAT 26 Sep 23:40:10 23:44:49 64° 288° (WNW) 23:49:29 435.000
QB50P2 26 Sep 23:44:14 23:45:21 11° 86° (E) 23:46:28 145.880/145.840
ISS 26 Sep 23:48:11 23:51:27 60° 6° (N) 23:54:43 437.550
SPROUT 26 Sep 23:48:57 23:52:42 31° 66° (ENE) 23:56:28 437.525
BEESAT 2 26 Sep 23:50:34 23:51:39 11° 348° (NNW) 23:52:44 435.950
LO-87 26 Sep 23:57:54 00:01:11 35° 263° (W) 00:04:29 145.935 - 145.965
ESTCUBE 1 27 Sep 00:03:03 00:07:30 57° 259° (W) 00:12:00 437.505/2401.250
NANOSAT C BR1 27 Sep 00:14:26 00:17:25 18° 91° (E) 00:20:22 145.865
VELOX 1 27 Sep 00:16:28 00:20:38 44° 69° (ENE) 00:24:50 145.980
nSIGHT-1 27 Sep 00:20:49 00:24:04 73° 12° (NNE) 00:27:19 .
YUBILEINY 27 Sep 00:22:14 00:30:46 61° 268° (W) 00:39:19 435.215
AO-85 27 Sep 00:31:02 00:31:20 10° 359° (N) 00:31:38 145.980
50 SAT 27 Sep 00:38:53 00:41:27 21° 65° (ENE) 00:44:01 437.505
DUCHIFAT 1 27 Sep 00:40:20 00:44:02 28° 95° (E) 00:47:44 145.980
PRISM 27 Sep 00:46:45 00:50:02 24° 297° (WNW) 00:53:18 437.425
PCSat 27 Sep 00:53:01 00:56:40 18° 254° (WSW) 01:00:17 145.827
UNISAT 6 27 Sep 00:55:29 00:58:12 15° 303° (WNW) 01:00:56 437.425
AIST 2D 27 Sep 00:59:04 01:02:31 50° 288° (WNW) 01:05:55 435.315
Tancredo 1 27 Sep 00:59:09 01:01:03 18° 217° (SW) 01:02:57 437.200
POLYITAN 1 27 Sep 00:59:18 01:03:32 54° 100° (E) 01:07:45 437.675
UKube-1 27 Sep 00:59:59 01:03:31 25° 63° (ENE) 01:07:03 .
BUGSAT 1 27 Sep 01:02:15 01:04:36 14° 89° (E) 01:06:57 437.445
EO-79 27 Sep 01:02:31 01:06:47 58° 101° (E) 01:10:59 145.935-145.965
DX 1 27 Sep 01:13:43 01:17:53 48° 69° (ENE) 01:22:04 434.975-435.025
BEESAT 3 27 Sep 01:14:04 01:15:59 13° 20° (NNE) 01:17:53 437.485
QB50P2 27 Sep 01:17:28 01:21:47 89° 105° (ESE) 01:26:04 145.880/145.840
TIGRISAT 27 Sep 01:19:21 01:20:37 11° 307° (NW) 01:21:53 435.000
ISS 27 Sep 01:24:43 01:27:59 60° 205° (SSW) 01:31:14 437.550
SPROUT 27 Sep 01:24:48 01:28:34 31° 265° (W) 01:32:23 437.525
BEESAT 2 27 Sep 01:30:12 01:31:12 11° 12° (NNE) 01:32:13 435.950
BEESAT 27 Sep 01:39:18 01:41:10 12° 52° (NE) 01:43:01 436.000
MOZHAYETS 4 27 Sep 01:39:30 01:40:40 11° 53° (NE) 01:41:51
NANOSAT C BR1 27 Sep 01:49:16 01:53:26 54° 289° (WNW) 01:57:36 145.865
VELOX 1 27 Sep 01:53:48 01:57:18 23° 267° (W) 02:00:48 145.980
nSIGHT-1 27 Sep 01:57:15 02:00:15 34° 212° (SSW) 02:03:15 .
M-CUBED/EXP-1 PRIME 27 Sep 02:01:07 02:04:14 37° 105° (ESE) 02:07:16 437.505
Oscar 19 27 Sep 02:01:14 02:05:42 29° 94° (E) 02:10:07 437.125/150
O/OREOS (USA 219) 27 Sep 02:07:21 02:11:36 42° 109° (ESE) 02:15:54 437.305
AO-85 27 Sep 02:10:51 02:13:29 16° 24° (NNE) 02:16:13 145.980
50 SAT 27 Sep 02:10:55 02:13:49 28° 264° (W) 02:16:43 437.505
Gurwin Techsat 1B 27 Sep 02:15:11 02:19:41 27° 93° (E) 02:24:10 435.225
DUCHIFAT 1 27 Sep 02:15:52 02:19:44 34° 293° (WNW) 02:23:35 145.980
YUBILEINY 27 Sep 02:21:48 02:25:39 14° 291° (WNW) 02:29:31 435.215
UKube-1 27 Sep 02:35:18 02:39:21 40° 261° (W) 02:43:27 .
POLYITAN 1 27 Sep 02:35:50 02:38:58 20° 299° (WNW) 02:42:06 437.675
BUGSAT 1 27 Sep 02:36:12 02:40:24 68° 288° (WNW) 02:44:37 437.445
EO-79 27 Sep 02:39:09 02:42:08 19° 300° (WNW) 02:45:08 145.935-145.965
ITUPSAT 1 27 Sep 02:39:42 02:44:02 35° 65° (ENE) 02:48:24 437.325
BEESAT 3 27 Sep 02:50:47 02:54:36 40° 42° (NE) 02:58:20 437.485
DX 1 27 Sep 02:51:04 02:54:20 21° 268° (W) 02:57:37 434.975-435.025
QB50P2 27 Sep 02:54:54 02:56:56 13° 303° (WNW) 02:58:57 145.880/145.840
ISS 27 Sep 03:02:12 03:03:56 14° 223° (SW) 03:05:40 437.550
BEESAT 2 27 Sep 03:06:52 03:10:18 25° 35° (NE) 03:13:43 435.950
AO-7 27 Sep 03:11:13 03:16:35 18° 86° (E) 03:21:54 .
MOZHAYETS 4 27 Sep 03:12:21 03:16:56 64° 72° (ENE) 03:21:33
BEESAT 27 Sep 03:13:20 03:18:05 69° 71° (ENE) 03:22:51 436.000
ITAMSAT 1 27 Sep 03:17:14 03:17:41 10° 84° (E) 03:18:08 435.822/435.867
M-CUBED/EXP-1 PRIME 27 Sep 03:36:11 03:38:28 17° 303° (WNW) 03:40:41 437.505
Oscar 19 27 Sep 03:40:16 03:45:12 46° 293° (WNW) 03:50:06 437.125/150
O/OREOS (USA 219) 27 Sep 03:47:11 03:51:09 29° 309° (NW) 03:55:10 437.305
RS-15 27 Sep 03:47:36 03:56:33 25° 99° (E) 04:05:29 29.354- 29.394
CUBESAT XI-V 27 Sep 03:48:54 03:53:13 37° 66° (ENE) 03:57:30 437.345
AO-85 27 Sep 03:50:32 03:54:46 53° 45° (NE) 03:59:20 145.980
Gurwin Techsat 1B 27 Sep 03:54:46 03:59:54 51° 292° (WNW) 04:05:02 435.225
BUGSAT 1 27 Sep 04:14:54 04:14:57 10° 306° (NW) 04:15:00 437.445
ITUPSAT 1 27 Sep 04:17:31 04:21:51 34° 263° (W) 04:26:14 437.325
BEESAT 3 27 Sep 04:28:33 04:32:03 29° 242° (WSW) 04:35:28 437.485
KKS-1 27 Sep 04:42:15 04:46:26 44° 69° (ENE) 04:50:40 437.445
BEESAT 2 27 Sep 04:44:20 04:48:21 58° 235° (SW) 04:52:18 435.950
MOZHAYETS 4 27 Sep 04:51:26 04:54:31 18° 271° (W) 04:57:39
ITAMSAT 1 27 Sep 04:52:55 04:58:08 67° 103° (ESE) 05:03:20 435.822/435.867
BEESAT 27 Sep 04:53:14 04:56:20 17° 270° (W) 04:59:29 436.000
STARS 27 Sep 04:56:21 05:00:04 28° 64° (ENE) 05:03:49 437.465
AO-7 27 Sep 05:02:25 05:10:46 76° 108° (ESE) 05:19:03 .
DOVE 4 27 Sep 05:11:39 05:13:26 12° 88° (E) 05:15:14 437.250
CUBESAT XI-V 27 Sep 05:26:26 05:30:37 31° 265° (W) 05:34:48 437.345
AO-85 27 Sep 05:31:16 05:35:00 26° 243° (WSW) 05:38:55 145.980
Gurwin Techsat 1B 27 Sep 05:37:47 05:38:41 10° 313° (NW) 05:39:35 435.225
RS-15 27 Sep 05:54:48 06:07:04 77° 123° (ESE) 06:19:18 29.354- 29.394
KKS-1 27 Sep 06:19:40 06:23:12 23° 267° (W) 06:26:45 437.445
XW-2D 27 Sep 06:31:31 06:34:28 21° 92° (E) 06:37:22 145.860 - 145.880
STARS 27 Sep 06:32:16 06:36:18 36° 263° (W) 06:40:22 437.465
ITAMSAT 1 27 Sep 06:33:12 06:37:09 22° 302° (WNW) 06:41:06 435.822/435.867
XW-2F 27 Sep 06:40:41 06:43:48 24° 94° (E) 06:46:54 145.980 - 146.000
XW-2B 27 Sep 06:43:46 06:47:03 27° 95° (E) 06:50:18 145.730 - 145.750
DOVE 4 27 Sep 06:47:24 06:51:40 81° 285° (WNW) 06:56:07 437.250
STRAND 1 27 Sep 06:50:22 06:55:03 38° 65° (ENE) 06:59:47 437.568
NUDT-PHONESAT 27 Sep 06:51:01 06:54:06 24° 94° (E) 06:57:08 437.300
AO-7 27 Sep 06:55:48 07:02:56 34° 310° (NW) 07:10:03 .
XW-2C 27 Sep 07:05:04 07:08:47 46° 99° (E) 07:12:26 145.795 - 145.815
CUTE-I 27 Sep 07:08:28 07:13:33 42° 98° (E) 07:18:35 437.470
LilacSat-2 27 Sep 07:22:02 07:25:54 78° 103° (ESE) 07:29:43 437.200
KAITUO 1B 27 Sep 07:25:25 07:29:09 59° 101° (ESE) 07:32:48 145.475/437.950
CUTE 1.7 + AOD 2 27 Sep 07:30:27 07:33:41 21° 91° (E) 07:36:53 437.475
HO-68 27 Sep 08:00:40 08:07:33 45° 99° (E) 08:14:23 435.675
FO-29 27 Sep 08:01:28 08:05:44 25° 60° (ENE) 08:09:53 435.910
XW-2D 27 Sep 08:05:14 08:08:46 36° 291° (WNW) 08:12:16 145.860 - 145.880
RS-15 27 Sep 08:08:39 08:20:37 51° 331° (NNW) 08:32:26 29.354- 29.394
XW-2F 27 Sep 08:14:34 08:17:59 32° 292° (WNW) 08:21:20 145.980 - 146.000
XW-2B 27 Sep 08:17:53 08:21:13 29° 293° (WNW) 08:24:30 145.730 - 145.750
NUDT-PHONESAT 27 Sep 08:24:40 08:28:00 31° 292° (WNW) 08:31:18 437.300
DOVE 4 27 Sep 08:27:16 08:28:44 12° 303° (WNW) 08:30:12 437.250
STRAND 1 27 Sep 08:29:40 08:34:17 34° 264° (W) 08:38:57 437.568
SEEDS 27 Sep 08:29:46 08:33:52 51° 99° (E) 08:37:55 437.485
UWE-3 27 Sep 08:38:10 08:42:32 37° 96° (E) 08:46:52 435.000/436.395/437.385
CUBEBUG 2 27 Sep 08:39:26 08:44:08 61° 101° (E) 08:48:51 437.445
XW-2C 27 Sep 08:40:01 08:42:39 18° 297° (WNW) 08:45:17 145.795 - 145.815
AAUSAT CUBESAT 2 27 Sep 08:40:36 08:44:18 31° 95° (E) 08:47:58 437.432
UNISAT 6 27 Sep 08:45:23 08:48:24 18° 59° (ENE) 08:51:27 437.425
CUTE-I 27 Sep 08:48:44 08:53:30 34° 297° (WNW) 08:58:16 437.470
AO-7 27 Sep 08:50:24 08:53:13 12° 335° (NNW) 08:56:03 .
LilacSat-2 27 Sep 08:57:59 08:59:37 12° 301° (WNW) 09:01:13 437.200
KAITUO 1B 27 Sep 09:00:35 09:02:42 15° 299° (WNW) 09:04:48 145.475/437.950
CUTE 1.7 + AOD 2 27 Sep 09:05:41 09:09:45 45° 290° (WNW) 09:13:45 437.475
Oscar 11 27 Sep 09:06:17 09:09:53 25° 93° (E) 09:13:26 .
TIGRISAT 27 Sep 09:07:09 09:10:46 25° 63° (ENE) 09:14:28 435.000
XW-2A 27 Sep 09:09:58 09:13:25 77° 285° (WNW) 09:16:48 145.665 - 145.685
AO-73 27 Sep 09:11:30 09:15:49 39° 97° (E) 09:20:05 145.935
ZACube-1 27 Sep 09:16:44 09:21:13 49° 99° (E) 09:25:38 437.345
DELFI C3 27 Sep 09:34:18 09:35:17 11° 87° (E) 09:36:16 145.870
FO-29 27 Sep 09:45:14 09:50:35 55° 259° (W) 09:55:43 435.910
Max Valier Satellite 27 Sep 09:47:34 09:48:31 11° 87° (E) 09:49:29 145.860
HO-68 27 Sep 09:48:32 09:55:18 46° 299° (WNW) 10:02:03 435.675
PRISM 27 Sep 10:04:03 10:08:00 50° 70° (ENE) 10:11:57 437.425
SEEDS 27 Sep 10:06:11 10:09:12 20° 298° (WNW) 10:12:13 437.485
AIST 2D 27 Sep 10:06:34 10:07:40 11° 60° (ENE) 10:08:48 435.315
UWE-3 27 Sep 10:14:46 10:18:54 31° 295° (WNW) 10:23:00 435.000/436.395/437.385
AAUSAT CUBESAT 2 27 Sep 10:16:08 10:19:42 29° 294° (WNW) 10:23:13 437.432
CUBEBUG 2 27 Sep 10:16:50 10:20:20 21° 299° (WNW) 10:23:52 437.445
UNISAT 6 27 Sep 10:20:15 10:24:37 66° 259° (WSW) 10:29:09 437.425
POLYITAN 1 27 Sep 10:24:09 10:24:48 10° 54° (NE) 10:25:27 437.675
RS-15 27 Sep 10:25:10 10:36:31 39° 4° (N) 10:47:29 29.354- 29.394
EO-79 27 Sep 10:26:45 10:27:52 11° 55° (NE) 10:28:58 145.935-145.965
O/OREOS (USA 219) 27 Sep 10:33:45 10:37:43 27° 50° (NE) 10:41:40 437.305
EO-88 27 Sep 10:37:15 10:40:27 27° 95° (E) 10:43:37 145.990 - 145.960
QB50P2 27 Sep 10:40:13 10:42:45 16° 59° (ENE) 10:45:19 145.880/145.840
Oscar 11 27 Sep 10:42:05 10:46:09 40° 292° (WNW) 10:50:12 .
TIGRISAT 27 Sep 10:43:03 10:47:14 43° 262° (W) 10:51:34 435.000
AO-73 27 Sep 10:47:58 10:51:54 28° 295° (WNW) 10:55:47 145.935
ZACube-1 27 Sep 10:53:32 10:57:13 24° 297° (WNW) 11:00:51 437.345
DELFI C3 27 Sep 11:06:38 11:10:34 79° 286° (WNW) 11:14:29 145.870
NANOSAT C BR1 27 Sep 11:10:23 11:13:45 24° 63° (ENE) 11:17:09 145.865
M-CUBED/EXP-1 PRIME 27 Sep 11:17:47 11:20:07 15° 55° (NE) 11:22:23 437.505
Max Valier Satellite 27 Sep 11:19:05 11:22:51 73° 285° (WNW) 11:26:33 145.860
LO-87 27 Sep 11:21:15 11:23:05 13° 90° (E) 11:24:54 145.935 - 145.965
DUCHIFAT 1 27 Sep 11:35:54 11:39:44 36° 67° (ENE) 11:43:37 145.980
AIST 2D 27 Sep 11:36:46 11:40:20 75° 259° (W) 11:43:54 435.315
HO-68 27 Sep 11:38:15 11:41:20 13° 322° (NW) 11:44:24 435.675
